sat.trackr.live / text

‹ back to catalog

BANDWAGON-2 OBJECT S

NORAD 62393 · 2024-247S

PAYLOAD ACTIVE UNKNOWN

§ Identity

Operator
Country
TBD
Launch date
2024-12-21
Launch site
AFWTR
Launch vehicle
Mass (kg)
RCS (m²)

External: N2YO · Heavens-Above · Gunter

§ Orbital elements

Epoch: 2026-05-24T23:03:50.143392Z

Period
91.05 min
Inclination
44.9627°
Eccentricity
0.0016795
Mean motion
15.81560483 rev/d
Perigee alt
314.8 km
Apogee alt
337.3 km
Semi-major
6,704.2 km
B*
1.5880e-3
RAAN
356.8328°
Arg perigee
251.3127°
Mean anomaly
108.5953°
Rev number
8,014

§ Raw data

BANDWAGON-2 OBJECT S1 62393U 24247S   26144.96099703  .00342224  00000+0  15880-2 0  99922 62393  44.9627 356.8328 0016795 251.3127 108.5953 15.81560483 80146

JSON: /api/v1/satellites/62393 · /tle

For live sub-satellite position, see the globe view (requires WebGL).

§ Visibility from observer

Set your observer location to see the next 7 days of passes ≥ 10°. The values pass through the URL so the page stays shareable.

No JS? Fill the form by hand. The geolocation button needs JavaScript.